Погода в Архангельске

Погода в Архангельске : погода сейчас, прогноз погоды и архив. Всё, что Вы хотите узнать о погоде в Архангельске!

Хотите узнать прогноз погоды в Архангельске? Тогда Вам сюда: Погода в Архангельске

Поиск расширенной информации на нашем сайте:

Другие новости

Новости СМИ2

Главная страница сайта

Новости сайта

02.10.2013

Напоминаем, что на нашем новом сайте вы можете получить высокодетализированные прогнозы погоды по пунктам России, СНГ и мира (включающие важные для авиации метеовеличины, такие как направление и скорость ветра, видимость, явления погоды, количество и форма облачности, нижняя и верхняя граница облачности), а также ознакомиться с разнообразными материалами по авиационной метеорологии и подборкой полезных ссылок на эту тему.

Сайт Метеоцентр.Азия посвящён разработке технологий оптимизации авиаметеорологического обслуживания, включая проектирование и перспективное создание нескольких автоматизированных авиаметеорологических систем:
- система выпуска высокодетальных прогностических карт явлений погоды для нижнего воздушного пространства по России и ближнему зарубежью;
- система верификации прогнозов TAF (выпускаемых синоптиками официальных АМСГ РФ и ближнего зарубежья) и AUTOTAF (выпускаемых сайтом Метеоцентр.Азия) - выявление ошибок, онлайн-сопоставление с фактической погодой METAR, автоматическое внесение коррективов в прогнозы при резком отклонении фактической погоды от прогноза, подсчёт оправдываемости прогнозов по элементам и в целом;
- система обработки, анализа и отображения авиаметеорологической информации для применения провайдерами метеорологической информации.

Рекомендуем: Купить дистанционная рамка пвх.

Погода в Архангельске - сегодня

Время (UTC), дата Ветер
(°,м/с) 
Видим.   Явления Облачность Т
(°С)
Тd
(°С)
f(%) Тe
(°С)
Pmin
(гПа)
dP
(гПа)
Po
(мм)
O2
(г/м3)
Тmin Tmax R s Состояние
почвы
21 22.03.17 180 (Ю) 4{10}  20000 м    10/10 1140 м 
[Sc]
+2.6 +0.1 84 +1  1001.9  -0.5  751  300           
00 23.03.17 200 (Ю) 19000 м  {ливн. осадки}  10/10 960 м 
[Sc]
+2.1 +0.1 87 1001.6  -0.3  750  300           
03 23.03.17 210 (ЮЗ) 10 км    9/8 870 м средняя 
[Sc|Ac trans]
+1.5 -0.4 87 1001.4  -0.2  750  301  +1.5    0.0  28  равномерный
мокрый или
старый снег
100% 
06 23.03.17 220 (ЮЗ) 4{11}  10 км    9/9 720 м 
[Sc]
+2.4 -1.5 75 1001.8  0.4  751  300  +1.4         
09 23.03.17 200 (Ю) 3{10}  10 км    9/8 1050 м средняя 
[Sc|Ac trans]
+3.4 -1.5 70 +2  1001.6  -0.2  750  299           
12 23.03.17 230 (ЮЗ) 4{10}  10 км    10/10 930 м 
[Sc]
+2.9 -0.3 79 +1  1002.4  0.8  751  299           
15 23.03.17 220 (ЮЗ) 3{10}  10 км  {ливн. осадки}  5/1 600 м средняя, верхняя 
[Sc|Ac trans|Cc]
+2.2 +0.1 86 +1  1003.6  1.2  752  301    +3.7  0.0     
18 23.03.17 270 (З) 23000 м  {ливн. осадки}  6/0 средняя 
[Ac trans]
+2.3 -4 63 1004.6  1.2  753  301           
21 23.03.17 220 (ЮЗ) 21000 м    8/0 средняя 
[Ac trans]
+0.8 -4.7 67 -1  1004.7  0.1  753  303           
00 24.03.17 230 (ЮЗ) 24000 м    ясно 
-0.9 -6.2 67 -3  1004.9  0.2  753  305           
03 24.03.17 230 (ЮЗ) 10 км    ясно 
-1.9 -6.5 71 -4  1004.7  -0.2  753  306  -1.9      27  равномерный
мокрый или
старый снег
100% 
06 24.03.17 240 (ЮЗ) 10 км    1/0 средняя 
[Ac trans]
-0.2 -6 65 -2  1004.6  0.1  753  304  -2.1         
09 24.03.17 240 (ЮЗ) 5{10}  10 км    4/3 1000 м средняя, верхняя 
[Cu hum|Ac trans|Ci fib]
+1.2 -5.6 60 -2  1004.5  0.1  753  303           
12 24.03.17 250 (З) 4{10}  10 км    10/0 средняя 
[Ac As]
+0.1 -3.6 76 -2  1005  0.5  753  304           
15 24.03.17 220 (ЮЗ) 1000 м  сильн. снег  10/10 450 м 
[Ns]
-1.1 -1.5 97 -2  1005.2  0.1  753  305    +2.2  0.6     
18 24.03.17 240 (ЮЗ) 3100 м  снег  10/10 540 м 
[Ns]
-1.3 -1.5 99 -3  1004.8  -0.3  753  305           
21 24.03.17 260 (З) 17000 м  в посл. час снег  10/10 240 м 
[St]
-1.1 -1.2 99 -2  1004.8  0.1  753  305           
00 25.03.17 310 (СЗ) 20000 м  {ливн. осадки, снег}  9/0 средняя 
[Ac cuf]
-1.4 -1.6 99 -2  1005.8  1.1  754  305           
03 25.03.17 300 (СЗ) 10 км    10/10 300 м 
[St]
-1.4 -1.7 98 -2  1006.9  1.1  754  306  -1.7    29  равномерный
сухой снег
100% 
06 25.03.17 330 (СЗ) 10 км    10/10 960 м 
[Sc]
-0.5 -1.7 92 -1  1008  1.1  755  305           
09 25.03.17 300 (СЗ) 10 км    1/0 средняя 
[Ac trans]
+2 -2.5 72 +1  1009.7  1.7  757  303           
12 25.03.17 320 (СЗ) 10 км    3/3 600 м 
[Cu med, cong]
+2.2 -3.5 66 +1  1010.8  1.1  757  303           
15 25.03.17 320 (СЗ) 10 км    ясно 
-0.6 -3.8 79 -1  1011.6  0.8  758  307    +2.5       
18 25.03.17 250 (З) 20000 м    ясно 
-4.8 -5.4 96 -4  1012.5  0.8  759  312           
21 25.03.17 260 (З) 0500 м  туман  ?/?  
-6.7 -7.1 97 -6  1012.9  0.4  759  314           
Время (UTC), дата Ветер
(°,м/с) 
Видим.   Явления Облачность Т
(°С)
Тd
(°С)
f(%) Тe
(°С)
Pmin
(гПа)
dP
(гПа)
Po
(мм)
O2
(г/м3)
Тmin Tmax R s Состояние
почвы

Для получения пояснительной информации подведите курсор к названию столбца.

ПОГОДА в Архангельске - архив

Всё, что Вы хотите узнать о погоде в Архангельске - удобно и подробно!

Выберите нужную дату (начиная с 1 января 2015* года) и нажмите кнопку "Найти".
Будут отображены архивные сводки погоды по пункту Архангельск, начиная с указанной даты.


Отображать данные в формате CSV (для использования в таблицах Excel)


Внимание! Наш архив погоды предназначен исключительно для личного некоммерческого использования в познавательных целях. Если Вам необходимы официальные справки о состоянии погоды (для производственных, юридических, коммерческих и т.п. целей), обращайтесь в органы Росгидромета.

*Примечание: данная дата относится к архиву по метеостанциям СССР (Россия, СНГ, Балтия).
Архив по метеостанциям Зарубежной Европы и Азии (кроме Китая) хранится 10 дней, по другим регионам земного шара (Китай, Африка, Америка, Австралия, Океания) - 1 день.

Архангельск - район местоположения метеостанции


Название, широта, долгота, высота метеостанции:
Архангельск (город) 64.5°ш. 40.7°д. 8 м над ур. моря [Российская Федерация]

Дополнительная информация

В oтличие oт бoльшинства пoгoдных сайтoв мы публикуем пoдрoбную метеoинфoрмацию в детальнoм прoфессиoнальнoм фoрмате.

Характеристики температуры и влажнoсти вoздуха измеряются на высoте 2 м в тени вдали oт зданий и деревьев.
Скoрoсть ветра измеряется на высoте 10 м (на урoвне рoста челoвека скoрoсть ветра ниже в 1.5-2 раза). Если метеoстанция нахoдится в гoрoде или в лесу, тo скoрoсть ветра занижена на 2-4 м/с пo сравнению с oткрытым местoм. Скoрoсть ветра над акватoриями крупных рек и oзёр, а также на вершинах хoлмoв на 2-5 м/с выше, чем в oбычных услoвиях.
Атмoсфернoе давление в разных тoчках местнoсти мoжет значительнo oтличаться oт давления на метеoстанции, в зависимoсти oт услoвий рельефа (при пoдъёме на 10 м давление пoнижается примернo на 1 мм рт.ст.).